Simultaneous Nadir Overpasses (SNOs) Predictions

Prediction of SNOs between FY3D and TERRA Satellite Orbit:

Table of predicted SNOs for the next 14.0 days since TLE Epoch: 1/29/2022
Index Date (FY3D) Time (FY3D) Lat,Lon (FY3D) SZA (FY3D ) Date (TERRA) Time (TERRA) Lat,Lon (TERRA) SZA (TERRA ) Distance(km) Time Diff (sec)
1 01/30/2022 06:54:52 -71.10,-104.26 91.32 01/30/2022 06:56:04 -70.99,-103.79 91.45 20.67 72
2 01/30/2022 07:45:32 70.77, 63.61 88.33 01/30/2022 07:45:33 70.78, 63.53 88.34 3.49 1
3 01/30/2022 08:36:16 -70.71,-128.98 91.74 01/30/2022 08:35:02 -70.72,-128.93 91.73 2.04 74
4 02/01/2022 22:21:57 70.89,-155.67 87.72 02/01/2022 22:23:02 70.91,-155.68 87.73 2.38 65
5 02/01/2022 23:12:40 -70.78, 11.82 92.41 02/01/2022 23:12:32 -70.79, 11.78 92.39 2.25 8
6 02/02/2022 00:03:16 70.24,-179.98 87.03 02/02/2022 00:02:06 70.31, 178.70 87.13 50.09 70
7 02/04/2022 13:49:06 -70.91, 152.54 93.05 02/04/2022 13:50:02 -70.92, 152.56 93.04 1.43 56
8 02/04/2022 14:39:51 70.83, -40.03 86.87 02/04/2022 14:39:29 70.81, -39.96 86.85 3.45 22
9 02/04/2022 15:30:19 -69.94, 128.71 94.06 02/04/2022 15:29:12 -69.99, 126.48 93.96 85.16 67
10 02/07/2022 05:16:16 70.90, 100.77 86.15 02/07/2022 05:16:59 70.92, 100.81 86.16 2.44 43
11 02/07/2022 06:06:59 -70.80, -91.74 93.98 02/07/2022 06:06:29 -70.81, -91.72 93.96 1.53 30
12 02/09/2022 20:43:25 -70.93, 48.96 94.67 02/09/2022 20:43:59 -70.92, 49.04 94.69 3.18 34
13 02/09/2022 21:34:09 70.80,-143.51 85.19 02/09/2022 21:33:26 70.81,-143.48 85.20 1.28 43



Historial Predications of SNOs between FY3D and TERRA
